CSDMS SKBO-GOBD

Flight info

Callsign CSDMS
Flight time 8h 2m
Altitude 37000
Route MAVDA UW20 AUC DCT MIQ UN669 ELJEZ/M079F370 DCT 2150N/M079F390 DCT 2340N DCT 22N036W DCT ERNEK/N0455F390 DCT EVKAS DCT BVT DCT MOGSA DCT PIVSA PIVSA1D
Aircraft B737/M-SDE2E3FGHIRWXY/LB1

Departure

Time 2026-04-25 13:06
Airport El Dorado International Airport (SKBO)

Arrival

Time 2026-04-25 21:09
Airport Blaise Diagne International Airport (GOBD)
Time Latitude Longitude Altitude Speed Heading
2026-04-25 12:07 4.69654 -74.14542 8372 ft 0 kts 217°
2026-04-25 12:32 4.69668 -74.14530 8373 ft 4 kts 220°
2026-04-25 12:32 4.69686 -74.14516 8372 ft 4 kts 230°
2026-04-25 12:33 4.69693 -74.14498 8372 ft 4 kts 304°
2026-04-25 12:33 4.69674 -74.14479 8372 ft 4 kts 315°
2026-04-25 12:33 4.69668 -74.14473 8373 ft 1 kts 308°
2026-04-25 12:36 4.69674 -74.14480 8372 ft 2 kts 308°
2026-04-25 12:36 4.69682 -74.14490 8372 ft 2 kts 308°
2026-04-25 12:36 4.69690 -74.14501 8372 ft 2 kts 308°
2026-04-25 12:36 4.69707 -74.14523 8372 ft 5 kts 307°
2026-04-25 12:37 4.69731 -74.14555 8372 ft 6 kts 307°
2026-04-25 12:37 4.69754 -74.14585 8372 ft 6 kts 307°
2026-04-25 12:37 4.69778 -74.14617 8372 ft 5 kts 307°
2026-04-25 12:37 4.69801 -74.14647 8372 ft 5 kts 307°
2026-04-25 12:38 4.69823 -74.14677 8372 ft 5 kts 307°
2026-04-25 12:38 4.69846 -74.14707 8372 ft 5 kts 307°
2026-04-25 12:38 4.69871 -74.14741 8373 ft 7 kts 306°
2026-04-25 12:38 4.69907 -74.14790 8372 ft 11 kts 307°
2026-04-25 12:39 4.69945 -74.14861 8373 ft 12 kts 268°
2026-04-25 12:39 4.69890 -74.14919 8372 ft 12 kts 217°
2026-04-25 12:39 4.69866 -74.14986 8372 ft 11 kts 298°
2026-04-25 12:39 4.69913 -74.15051 8373 ft 13 kts 307°
2026-04-25 12:40 4.69973 -74.15130 8372 ft 16 kts 306°
2026-04-25 12:40 4.70044 -74.15225 8372 ft 17 kts 307°
2026-04-25 12:40 4.70116 -74.15318 8372 ft 17 kts 307°
2026-04-25 12:40 4.70185 -74.15410 8372 ft 16 kts 307°
2026-04-25 12:41 4.70251 -74.15499 8372 ft 16 kts 307°
2026-04-25 12:41 4.70315 -74.15583 8372 ft 15 kts 307°
2026-04-25 12:41 4.70377 -74.15664 8372 ft 14 kts 307°
2026-04-25 12:41 4.70435 -74.15742 8372 ft 14 kts 307°
2026-04-25 12:42 4.70492 -74.15816 8372 ft 13 kts 307°
2026-04-25 12:42 4.70510 -74.15840 8372 ft 13 kts 307°
2026-04-25 12:42 4.70600 -74.15959 8372 ft 13 kts 307°
2026-04-25 12:42 4.70654 -74.16030 8373 ft 13 kts 307°
2026-04-25 12:43 4.70706 -74.16099 8373 ft 12 kts 307°
2026-04-25 12:43 4.70757 -74.16166 8373 ft 11 kts 307°
2026-04-25 12:43 4.70834 -74.16268 8373 ft 8 kts 307°
2026-04-25 12:44 4.70863 -74.16306 8373 ft 5 kts 307°
2026-04-25 12:44 4.70882 -74.16332 8373 ft 4 kts 307°
2026-04-25 12:44 4.70891 -74.16344 8373 ft 0 kts 307°
2026-04-25 12:46 4.70900 -74.16355 8373 ft 4 kts 307°
2026-04-25 12:46 4.70926 -74.16389 8373 ft 8 kts 307°
2026-04-25 12:46 4.70959 -74.16433 8373 ft 8 kts 307°
2026-04-25 12:46 4.70986 -74.16468 8373 ft 4 kts 307°
2026-04-25 12:47 4.70992 -74.16476 8373 ft 0 kts 307°
2026-04-25 12:49 4.70993 -74.16478 8373 ft 2 kts 307°
2026-04-25 12:50 4.71009 -74.16499 8372 ft 6 kts 307°
2026-04-25 12:50 4.71032 -74.16529 8373 ft 2 kts 307°
2026-04-25 12:50 4.71033 -74.16530 8373 ft 0 kts 307°
2026-04-25 12:52 4.71034 -74.16531 8373 ft 1 kts 307°
2026-04-25 12:52 4.71042 -74.16542 8372 ft 4 kts 307°
2026-04-25 12:53 4.71060 -74.16565 8373 ft 4 kts 307°
2026-04-25 12:53 4.71076 -74.16587 8372 ft 4 kts 307°
2026-04-25 12:53 4.71093 -74.16609 8372 ft 4 kts 307°
2026-04-25 12:53 4.71109 -74.16631 8373 ft 4 kts 307°
2026-04-25 12:54 4.71125 -74.16652 8373 ft 4 kts 307°
2026-04-25 12:54 4.71139 -74.16671 8372 ft 2 kts 307°
2026-04-25 12:55 4.71141 -74.16673 8372 ft 1 kts 307°
2026-04-25 12:56 4.71147 -74.16681 8372 ft 2 kts 307°
2026-04-25 12:56 4.71158 -74.16696 8372 ft 3 kts 307°
2026-04-25 12:56 4.71172 -74.16715 8373 ft 3 kts 307°
2026-04-25 12:56 4.71175 -74.16719 8373 ft 0 kts 307°
2026-04-25 12:57 4.71176 -74.16720 8373 ft 1 kts 307°
2026-04-25 12:58 4.71197 -74.16747 8373 ft 7 kts 308°
2026-04-25 12:58 4.71205 -74.16766 8372 ft 1 kts 281°
2026-04-25 12:58 4.71205 -74.16768 8372 ft 0 kts 276°
2026-04-25 12:59 4.71205 -74.16769 8372 ft 1 kts 275°
2026-04-25 12:59 4.71205 -74.16771 8372 ft 0 kts 272°
2026-04-25 13:00 4.71201 -74.16786 8372 ft 5 kts 250°
2026-04-25 13:00 4.71187 -74.16805 8373 ft 5 kts 225°
2026-04-25 13:00 4.71155 -74.16829 8372 ft 1 kts 217°
2026-04-25 13:00 4.71154 -74.16830 8372 ft 0 kts 217°
2026-04-25 13:03 4.71152 -74.16831 8372 ft 2 kts 217°
2026-04-25 13:03 4.71114 -74.16860 8372 ft 9 kts 217°
2026-04-25 13:03 4.71059 -74.16886 8372 ft 9 kts 184°
2026-04-25 13:04 4.71021 -74.16869 8372 ft 0 kts 128°
2026-04-25 13:05 4.70948 -74.16777 8372 ft 46 kts 127°
2026-04-25 13:05 4.70627 -74.16349 8374 ft 104 kts 127°
2026-04-25 13:05 4.70084 -74.15631 8372 ft 153 kts 127°
2026-04-25 13:06 4.69347 -74.14673 8393 ft 193 kts 128°
2026-04-25 13:06 4.68492 -74.13576 8781 ft 211 kts 126°
2026-04-25 13:06 4.67555 -74.12297 8870 ft 244 kts 123°
2026-04-25 13:06 4.66439 -74.10900 9354 ft 263 kts 144°
2026-04-25 13:07 4.64790 -74.10346 10452 ft 246 kts 183°
2026-04-25 13:07 4.63194 -74.10866 11244 ft 246 kts 219°
2026-04-25 13:07 4.62210 -74.12260 11857 ft 250 kts 257°
2026-04-25 13:07 4.62209 -74.13990 12546 ft 250 kts 276°
2026-04-25 13:08 4.62199 -74.15722 13281 ft 251 kts 264°
2026-04-25 13:08 4.62006 -74.17463 13977 ft 251 kts 263°
2026-04-25 13:08 4.61777 -74.19206 14551 ft 254 kts 262°
2026-04-25 13:08 4.61523 -74.20979 15005 ft 260 kts 262°
2026-04-25 13:09 4.61203 -74.22839 15149 ft 281 kts 259°
2026-04-25 13:09 4.60819 -74.24823 15327 ft 303 kts 259°
2026-04-25 13:09 4.60254 -74.26919 15674 ft 317 kts 244°
2026-04-25 13:09 4.59003 -74.28746 16318 ft 321 kts 227°
2026-04-25 13:10 4.57454 -74.30337 17021 ft 325 kts 225°
2026-04-25 13:10 4.55845 -74.31949 17688 ft 329 kts 226°
2026-04-25 13:10 4.54228 -74.33589 18386 ft 332 kts 226°
2026-04-25 13:10 4.52563 -74.35226 18923 ft 341 kts 219°
2026-04-25 13:11 4.50397 -74.36350 18981 ft 362 kts 199°
2026-04-25 13:11 4.48056 -74.37410 19072 ft 380 kts 213°
2026-04-25 13:11 4.45796 -74.38905 19167 ft 397 kts 214°
2026-04-25 13:11 4.43416 -74.40420 19251 ft 412 kts 212°
2026-04-25 13:12 4.40917 -74.41937 19403 ft 425 kts 211°
2026-04-25 13:12 4.38298 -74.43272 19735 ft 431 kts 199°
2026-04-25 13:12 4.35337 -74.43783 20188 ft 434 kts 180°
2026-04-25 13:12 4.33339 -74.43597 20502 ft 435 kts 168°
2026-04-25 13:13 4.29625 -74.41997 21034 ft 440 kts 144°
2026-04-25 13:13 4.27408 -74.39880 21408 ft 443 kts 127°
2026-04-25 13:13 4.25909 -74.37173 21809 ft 446 kts 109°
2026-04-25 13:13 4.25277 -74.34141 22280 ft 446 kts 92°
2026-04-25 13:14 4.25545 -74.31099 22680 ft 446 kts 76°
2026-04-25 13:14 4.26634 -74.28188 23036 ft 447 kts 59°
2026-04-25 13:14 4.28407 -74.25632 23421 ft 447 kts 52°
2026-04-25 13:14 4.30355 -74.23166 23729 ft 451 kts 51°
2026-04-25 13:15 4.32326 -74.20762 24040 ft 452 kts 50°
2026-04-25 13:15 4.34326 -74.18337 24175 ft 448 kts 50°
2026-04-25 13:15 4.36302 -74.15927 24201 ft 450 kts 50°
2026-04-25 13:15 4.38299 -74.13467 24310 ft 454 kts 51°
2026-04-25 13:16 4.40277 -74.11007 24696 ft 454 kts 51°
2026-04-25 13:16 4.42262 -74.08525 24888 ft 458 kts 51°
2026-04-25 13:16 4.44262 -74.06013 25083 ft 461 kts 51°
2026-04-25 13:16 4.46261 -74.03497 25379 ft 461 kts 52°
2026-04-25 13:17 4.48239 -74.01006 25649 ft 463 kts 52°
2026-04-25 13:17 4.50248 -73.98476 25910 ft 464 kts 52°
2026-04-25 13:17 4.52264 -73.95938 26155 ft 466 kts 52°
2026-04-25 13:17 4.54300 -73.93374 26199 ft 470 kts 52°
2026-04-25 13:18 4.56319 -73.90832 26208 ft 470 kts 52°
2026-04-25 13:18 4.58348 -73.88277 26196 ft 466 kts 52°
2026-04-25 13:18 4.60371 -73.85731 26208 ft 466 kts 52°
2026-04-25 13:18 4.62394 -73.83184 26215 ft 467 kts 52°
2026-04-25 13:19 4.64409 -73.80647 26232 ft 469 kts 52°
2026-04-25 13:19 4.66450 -73.78076 26395 ft 471 kts 52°
2026-04-25 13:19 4.68498 -73.75496 26731 ft 470 kts 52°
2026-04-25 13:19 4.69182 -73.74635 26841 ft 470 kts 52°
2026-04-25 13:20 4.72572 -73.70365 27261 ft 472 kts 52°
2026-04-25 13:20 4.74622 -73.67781 27463 ft 474 kts 52°
2026-04-25 13:20 4.76682 -73.65186 27618 ft 477 kts 52°
2026-04-25 13:20 4.78762 -73.62563 27699 ft 481 kts 52°
2026-04-25 13:21 4.80823 -73.59966 27922 ft 482 kts 52°
2026-04-25 13:21 4.82915 -73.57330 28162 ft 482 kts 52°
2026-04-25 13:21 4.85006 -73.54693 28376 ft 483 kts 52°
2026-04-25 13:21 4.87107 -73.52046 28578 ft 484 kts 52°
2026-04-25 13:22 4.89197 -73.49410 28815 ft 483 kts 52°
2026-04-25 13:22 4.91288 -73.46775 29137 ft 482 kts 52°
2026-04-25 13:22 4.93372 -73.44146 29448 ft 481 kts 52°
2026-04-25 13:23 4.97546 -73.38882 30093 ft 480 kts 53°
2026-04-25 13:23 4.99620 -73.36265 30368 ft 479 kts 53°
2026-04-25 13:23 5.01695 -73.33647 30668 ft 478 kts 53°
2026-04-25 13:23 5.03739 -73.31068 30971 ft 476 kts 53°
2026-04-25 13:24 5.05804 -73.28462 31336 ft 474 kts 53°
2026-04-25 13:24 5.07853 -73.25878 31731 ft 471 kts 54°
2026-04-25 13:24 5.09888 -73.23308 32063 ft 471 kts 54°
2026-04-25 13:24 5.11929 -73.20732 32353 ft 471 kts 54°
2026-04-25 13:25 5.13967 -73.18157 32683 ft 470 kts 54°
2026-04-25 13:25 5.15996 -73.15595 33058 ft 468 kts 54°
2026-04-25 13:25 5.18027 -73.13031 33399 ft 467 kts 54°
2026-04-25 13:25 5.20023 -73.10510 33731 ft 467 kts 54°
2026-04-25 13:26 5.22044 -73.07957 34017 ft 466 kts 54°
2026-04-25 13:26 5.24063 -73.05406 34308 ft 466 kts 54°
2026-04-25 13:26 5.26081 -73.02857 34629 ft 465 kts 54°
2026-04-25 13:26 5.28092 -73.00317 34895 ft 464 kts 54°
2026-04-25 13:27 5.30097 -72.97782 35182 ft 463 kts 54°
2026-04-25 13:27 5.32074 -72.95283 35440 ft 462 kts 54°
2026-04-25 13:27 5.34072 -72.92758 35626 ft 462 kts 54°
2026-04-25 13:27 5.36077 -72.90223 35836 ft 463 kts 54°
2026-04-25 13:28 5.38080 -72.87690 36006 ft 463 kts 54°
2026-04-25 13:28 5.42091 -72.82617 36421 ft 464 kts 54°
2026-04-25 13:28 5.44101 -72.80075 36587 ft 464 kts 54°
2026-04-25 13:29 5.46106 -72.77539 36819 ft 463 kts 54°
2026-04-25 13:29 5.48102 -72.75015 37104 ft 461 kts 54°
2026-04-25 13:29 5.50078 -72.72514 37119 ft 464 kts 54°
2026-04-25 13:30 5.56092 -72.64905 37115 ft 461 kts 54°
2026-04-25 13:31 5.62033 -72.57383 37130 ft 458 kts 54°
2026-04-25 13:31 5.65327 -72.53211 37090 ft 458 kts 54°
2026-04-25 13:32 5.69298 -72.48180 37122 ft 459 kts 54°
2026-04-25 13:32 5.73245 -72.43181 37114 ft 459 kts 54°
2026-04-25 13:33 5.77219 -72.38144 37072 ft 459 kts 54°
2026-04-25 13:33 5.81196 -72.33103 37105 ft 460 kts 54°
2026-04-25 13:34 5.85174 -72.28058 37101 ft 459 kts 54°
2026-04-25 13:34 5.89121 -72.23053 37060 ft 460 kts 54°
2026-04-25 13:35 5.93109 -72.17993 37049 ft 461 kts 54°
2026-04-25 13:35 5.97098 -72.12932 37078 ft 461 kts 54°
2026-04-25 13:36 6.01059 -72.07906 37038 ft 461 kts 54°
2026-04-25 13:36 6.05040 -72.02851 37035 ft 460 kts 54°
2026-04-25 13:37 6.09015 -71.97804 37029 ft 459 kts 54°
2026-04-25 13:37 6.12965 -71.92786 37024 ft 459 kts 54°
2026-04-25 13:38 6.16932 -71.87746 37023 ft 459 kts 54°
2026-04-25 13:38 6.20898 -71.82705 37006 ft 459 kts 54°
2026-04-25 13:39 6.24838 -71.77697 37010 ft 459 kts 54°
2026-04-25 13:39 6.28795 -71.72665 37008 ft 460 kts 54°
2026-04-25 13:40 6.32775 -71.67602 36990 ft 460 kts 54°
2026-04-25 13:40 6.36753 -71.62541 37014 ft 461 kts 54°
2026-04-25 13:41 6.40716 -71.57498 37012 ft 461 kts 54°
2026-04-25 13:41 6.44702 -71.52422 36993 ft 462 kts 53°
2026-04-25 13:42 6.48692 -71.47343 37000 ft 462 kts 53°
2026-04-25 13:42 6.52660 -71.42288 36982 ft 463 kts 53°
2026-04-25 13:43 6.56667 -71.37182 36990 ft 464 kts 53°
2026-04-25 13:43 6.60656 -71.32099 36988 ft 466 kts 53°
2026-04-25 13:44 6.64682 -71.26966 36981 ft 467 kts 53°
2026-04-25 13:44 6.68720 -71.21817 36983 ft 467 kts 53°
2026-04-25 13:45 6.72724 -71.16709 36986 ft 467 kts 53°
2026-04-25 13:45 6.76737 -71.11589 36982 ft 467 kts 53°
2026-04-25 13:46 6.80776 -71.06433 36979 ft 467 kts 53°
2026-04-25 13:46 6.84801 -71.01295 36976 ft 467 kts 53°
2026-04-25 13:47 6.88796 -70.96191 36979 ft 466 kts 53°
2026-04-25 13:47 6.92781 -70.91100 36981 ft 466 kts 53°
2026-04-25 13:48 6.96837 -70.85917 36973 ft 466 kts 53°
2026-04-25 13:48 7.00834 -70.80805 36983 ft 466 kts 53°
2026-04-25 13:49 7.04860 -70.75656 36993 ft 467 kts 53°
2026-04-25 13:49 7.09023 -70.70672 36998 ft 468 kts 48°
2026-04-25 13:50 7.13570 -70.65966 36998 ft 469 kts 46°
2026-04-25 13:50 7.18168 -70.61292 36983 ft 470 kts 47°
2026-04-25 13:51 7.22715 -70.56606 36990 ft 470 kts 47°
2026-04-25 13:51 7.27280 -70.51853 36988 ft 471 kts 47°
2026-04-25 13:52 7.31840 -70.47091 36979 ft 472 kts 47°
2026-04-25 13:52 7.36398 -70.42326 36981 ft 472 kts 47°
2026-04-25 13:53 7.40936 -70.37585 36974 ft 472 kts 47°
2026-04-25 13:53 7.45506 -70.32811 36978 ft 472 kts 47°
2026-04-25 13:54 7.50035 -70.28078 36982 ft 471 kts 47°
2026-04-25 13:54 7.54595 -70.23311 36984 ft 471 kts 47°
2026-04-25 13:55 7.59148 -70.18549 36983 ft 471 kts 47°
2026-04-25 13:55 7.63700 -70.13786 36988 ft 471 kts 47°
2026-04-25 13:56 7.68252 -70.09024 36981 ft 471 kts 47°
2026-04-25 13:56 7.72779 -70.04284 36982 ft 472 kts 47°
2026-04-25 13:57 7.77337 -69.99511 36984 ft 472 kts 47°
2026-04-25 13:57 7.81906 -69.94725 36986 ft 472 kts 47°
2026-04-25 13:58 7.86441 -69.89973 36983 ft 473 kts 47°
2026-04-25 13:58 7.91011 -69.85183 36985 ft 473 kts 47°
2026-04-25 13:59 7.95579 -69.80392 36989 ft 473 kts 47°
2026-04-25 13:59 8.00125 -69.75623 36994 ft 474 kts 47°
2026-04-25 14:00 8.04711 -69.70811 36989 ft 475 kts 47°
2026-04-25 14:00 8.09302 -69.65993 36996 ft 475 kts 47°
2026-04-25 14:01 8.13857 -69.61209 36992 ft 476 kts 47°
2026-04-25 14:01 8.18458 -69.56377 37003 ft 476 kts 47°
2026-04-25 14:02 8.23050 -69.51551 36987 ft 476 kts 47°
2026-04-25 14:02 8.27640 -69.46727 36993 ft 476 kts 47°
2026-04-25 14:03 8.32207 -69.41924 36997 ft 476 kts 47°
2026-04-25 14:03 8.36803 -69.37089 36994 ft 477 kts 47°
2026-04-25 14:04 8.41419 -69.32232 36992 ft 478 kts 47°
2026-04-25 14:04 8.46004 -69.27405 36989 ft 479 kts 47°
2026-04-25 14:05 8.50627 -69.22537 36998 ft 478 kts 47°
2026-04-25 14:05 8.55251 -69.17666 36995 ft 479 kts 47°
2026-04-25 14:06 8.59838 -69.12831 36999 ft 479 kts 47°
2026-04-25 14:06 8.64473 -69.07945 37000 ft 480 kts 47°
2026-04-25 14:07 8.69073 -69.03093 36997 ft 481 kts 47°
2026-04-25 14:07 8.73709 -68.98202 36994 ft 481 kts 47°
2026-04-25 14:08 8.78349 -68.93304 37005 ft 481 kts 47°
2026-04-25 14:08 8.82990 -68.88404 36996 ft 481 kts 47°
2026-04-25 14:09 8.87600 -68.83535 37000 ft 481 kts 47°
2026-04-25 14:09 8.92237 -68.78634 36992 ft 480 kts 47°
2026-04-25 14:10 8.96830 -68.73780 36998 ft 480 kts 47°
2026-04-25 14:10 9.01449 -68.68895 36992 ft 479 kts 47°
2026-04-25 14:11 9.06063 -68.64014 36994 ft 479 kts 47°
2026-04-25 14:11 9.10649 -68.59159 36991 ft 479 kts 47°
2026-04-25 14:12 9.15255 -68.54283 36994 ft 479 kts 47°
2026-04-25 14:12 9.19862 -68.49403 36987 ft 479 kts 47°
2026-04-25 14:13 9.24451 -68.44540 36995 ft 479 kts 47°
2026-04-25 14:13 9.29055 -68.39659 36995 ft 480 kts 47°
2026-04-25 14:14 9.33672 -68.34763 36996 ft 480 kts 47°
2026-04-25 14:14 9.38299 -68.29855 36991 ft 480 kts 47°
2026-04-25 14:15 9.42894 -68.24978 37003 ft 481 kts 47°
2026-04-25 14:15 9.46731 -68.20904 36996 ft 481 kts 47°
2026-04-25 14:16 9.51356 -68.15991 36988 ft 481 kts 47°
2026-04-25 14:16 9.55987 -68.11070 37003 ft 482 kts 47°
2026-04-25 14:17 9.60620 -68.06144 37005 ft 482 kts 48°
2026-04-25 14:17 9.65228 -68.01244 37002 ft 483 kts 48°
2026-04-25 14:18 9.69875 -67.96299 37008 ft 483 kts 48°
2026-04-25 14:18 9.74479 -67.91398 37013 ft 483 kts 48°
2026-04-25 14:19 9.79135 -67.86440 37012 ft 483 kts 48°
2026-04-25 14:19 9.83773 -67.81499 37009 ft 484 kts 48°
2026-04-25 14:20 9.88397 -67.76569 37026 ft 484 kts 47°
2026-04-25 14:20 9.93057 -67.71601 37021 ft 486 kts 47°
2026-04-25 14:21 9.97729 -67.66618 37023 ft 487 kts 47°
2026-04-25 14:21 10.02374 -67.61661 37025 ft 488 kts 47°
2026-04-25 14:22 10.07054 -67.56664 37013 ft 488 kts 47°
2026-04-25 14:22 10.11740 -67.51659 37019 ft 488 kts 48°
2026-04-25 14:23 10.16425 -67.46652 37016 ft 487 kts 48°
2026-04-25 14:23 10.21061 -67.41695 37008 ft 487 kts 48°
2026-04-25 14:24 10.25733 -67.36697 37017 ft 486 kts 48°
2026-04-25 14:24 10.30367 -67.31738 37007 ft 486 kts 48°
2026-04-25 14:25 10.35021 -67.26755 37041 ft 485 kts 48°
2026-04-25 14:25 10.39673 -67.21772 37034 ft 485 kts 48°
2026-04-25 14:26 10.44321 -67.16791 37009 ft 486 kts 48°
2026-04-25 14:26 10.48963 -67.11813 37007 ft 487 kts 48°
2026-04-25 14:27 10.53631 -67.06805 37000 ft 487 kts 48°
2026-04-25 14:27 10.58270 -67.01826 36966 ft 487 kts 48°
2026-04-25 14:28 10.62686 -66.96607 36966 ft 485 kts 57°
2026-04-25 14:28 10.66446 -66.90913 36968 ft 486 kts 59°
2026-04-25 14:29 10.70161 -66.85168 36978 ft 487 kts 58°
2026-04-25 14:29 10.73937 -66.79433 36967 ft 488 kts 58°
2026-04-25 14:30 10.77722 -66.73745 36970 ft 488 kts 58°
2026-04-25 14:30 10.83452 -66.65142 36970 ft 489 kts 58°
2026-04-25 14:31 10.87275 -66.59392 36966 ft 490 kts 58°
2026-04-25 14:31 10.91070 -66.53679 36963 ft 490 kts 58°
2026-04-25 14:32 10.94892 -66.47922 36962 ft 490 kts 58°
2026-04-25 14:32 10.98719 -66.42155 36961 ft 490 kts 58°
2026-04-25 14:33 11.02533 -66.36404 36961 ft 490 kts 58°
2026-04-25 14:33 11.06369 -66.30710 36958 ft 490 kts 57°
2026-04-25 14:34 11.10261 -66.25001 36965 ft 491 kts 57°
2026-04-25 14:34 11.14148 -66.19288 36969 ft 490 kts 57°
2026-04-25 14:35 11.18032 -66.13561 36962 ft 490 kts 57°
2026-04-25 14:35 11.21877 -66.07884 36965 ft 489 kts 57°
2026-04-25 14:36 11.25752 -66.02159 36965 ft 489 kts 57°
2026-04-25 14:36 11.29599 -65.96474 36967 ft 489 kts 57°
2026-04-25 14:37 11.33467 -65.90755 36965 ft 489 kts 57°
2026-04-25 14:37 11.37325 -65.85046 36965 ft 489 kts 57°
2026-04-25 14:38 11.41155 -65.79375 36971 ft 489 kts 57°
2026-04-25 14:38 11.45021 -65.73650 36969 ft 489 kts 57°
2026-04-25 14:39 11.48886 -65.67917 36972 ft 489 kts 57°
2026-04-25 14:39 11.52723 -65.62222 36968 ft 490 kts 57°
2026-04-25 14:40 11.56584 -65.56487 36965 ft 490 kts 57°
2026-04-25 14:40 11.60460 -65.50726 36974 ft 491 kts 57°
2026-04-25 14:41 11.64314 -65.44994 36971 ft 493 kts 57°
2026-04-25 14:41 11.68194 -65.39229 36978 ft 493 kts 56°
2026-04-25 14:42 11.70827 -65.35394 36970 ft 493 kts 56°
2026-04-25 14:42 11.76126 -65.27776 36960 ft 494 kts 56°
2026-04-25 14:43 11.80079 -65.22077 36976 ft 494 kts 56°
2026-04-25 14:43 11.84054 -65.16327 36974 ft 495 kts 56°
2026-04-25 14:44 11.88027 -65.10571 36970 ft 496 kts 56°
2026-04-25 14:44 11.92012 -65.04794 36970 ft 497 kts 56°
2026-04-25 14:45 11.95996 -64.99017 36971 ft 497 kts 56°
2026-04-25 14:45 11.99953 -64.93275 36963 ft 498 kts 56°
2026-04-25 14:46 12.03943 -64.87483 36972 ft 498 kts 56°
2026-04-25 14:46 12.07935 -64.81683 36971 ft 499 kts 56°
2026-04-25 14:47 12.10585 -64.77832 36971 ft 499 kts 56°
2026-04-25 14:47 12.15922 -64.70071 36973 ft 499 kts 56°
2026-04-25 14:48 12.19913 -64.64262 36971 ft 499 kts 56°
2026-04-25 14:48 12.23903 -64.58451 36973 ft 499 kts 56°
2026-04-25 14:49 12.27872 -64.52667 36971 ft 499 kts 56°
2026-04-25 14:49 12.31863 -64.46847 36972 ft 499 kts 56°
2026-04-25 14:50 12.35853 -64.41026 36975 ft 499 kts 56°
2026-04-25 14:50 12.39794 -64.35219 36977 ft 499 kts 57°
2026-04-25 14:51 12.43738 -64.29363 36973 ft 498 kts 57°
2026-04-25 14:51 12.47678 -64.23512 36975 ft 498 kts 57°
2026-04-25 14:52 12.51588 -64.17712 36973 ft 497 kts 57°
2026-04-25 14:52 12.54220 -64.13805 36975 ft 498 kts 57°
2026-04-25 14:53 12.59435 -64.06062 36978 ft 498 kts 57°
2026-04-25 14:53 12.63366 -64.00220 36980 ft 497 kts 57°
2026-04-25 14:54 12.67291 -63.94383 36972 ft 496 kts 57°
2026-04-25 14:54 12.71188 -63.88583 36975 ft 495 kts 57°
2026-04-25 14:55 12.75088 -63.82775 36981 ft 494 kts 57°
2026-04-25 14:55 12.78994 -63.76956 36982 ft 494 kts 57°
2026-04-25 14:56 12.82902 -63.71143 36995 ft 500 kts 57°
2026-04-25 14:56 12.86882 -63.65249 36985 ft 503 kts 55°
2026-04-25 14:57 12.91193 -63.59627 36983 ft 504 kts 51°
2026-04-25 14:57 12.95742 -63.54113 36977 ft 504 kts 50°
2026-04-25 14:58 12.99501 -63.49538 36977 ft 504 kts 51°
2026-04-25 14:58 13.04699 -63.43106 36981 ft 502 kts 51°
2026-04-25 14:59 13.08393 -63.38495 36979 ft 502 kts 51°
2026-04-25 14:59 13.13542 -63.32060 36981 ft 501 kts 51°
2026-04-25 15:00 13.17225 -63.27457 36984 ft 500 kts 51°
2026-04-25 15:00 13.21648 -63.21928 36990 ft 500 kts 51°
2026-04-25 15:01 13.26072 -63.16396 36988 ft 500 kts 51°
2026-04-25 15:01 13.30461 -63.10905 36983 ft 500 kts 52°
2026-04-25 15:02 13.34875 -63.05379 36981 ft 499 kts 52°
2026-04-25 15:02 13.39281 -62.99858 36980 ft 499 kts 52°
2026-04-25 15:03 13.43656 -62.94374 36989 ft 499 kts 52°
2026-04-25 15:03 13.48061 -62.88848 36986 ft 500 kts 52°
2026-04-25 15:04 13.52474 -62.83309 36987 ft 500 kts 52°
2026-04-25 15:04 13.56863 -62.77796 36987 ft 500 kts 52°
2026-04-25 15:05 13.61271 -62.72255 36985 ft 500 kts 52°
2026-04-25 15:06 13.67890 -62.63928 36987 ft 500 kts 52°
2026-04-25 15:06 13.72280 -62.58402 36991 ft 501 kts 52°
2026-04-25 15:07 13.76696 -62.52839 36987 ft 502 kts 52°
2026-04-25 15:07 13.81113 -62.47271 36989 ft 502 kts 52°
2026-04-25 15:08 13.85512 -62.41722 36991 ft 502 kts 52°
2026-04-25 15:08 13.89934 -62.36140 36987 ft 503 kts 52°
2026-04-25 15:09 13.94357 -62.30553 36990 ft 503 kts 52°
2026-04-25 15:09 14.00998 -62.22158 36990 ft 504 kts 52°
2026-04-25 15:10 14.05399 -62.16589 36988 ft 505 kts 52°
2026-04-25 15:11 14.12074 -62.08137 36994 ft 506 kts 52°
2026-04-25 15:11 14.16503 -62.02523 36991 ft 507 kts 52°
2026-04-25 15:12 14.23163 -61.94076 36988 ft 507 kts 52°
2026-04-25 15:12 14.26867 -61.89373 36981 ft 508 kts 52°
2026-04-25 15:13 14.34296 -61.79934 36990 ft 508 kts 52°
2026-04-25 15:14 14.38728 -61.74297 36988 ft 508 kts 52°
2026-04-25 15:14 14.43187 -61.68622 36987 ft 508 kts 52°
2026-04-25 15:15 14.47646 -61.62943 36995 ft 508 kts 52°
2026-04-25 15:15 14.52078 -61.57295 36987 ft 508 kts 52°
2026-04-25 15:16 14.56530 -61.51616 36992 ft 508 kts 52°
2026-04-25 15:16 14.63209 -61.43090 36991 ft 508 kts 52°
2026-04-25 15:17 14.69863 -61.34586 36989 ft 508 kts 52°
2026-04-25 15:18 14.74312 -61.28895 37001 ft 508 kts 52°
2026-04-25 15:18 14.80956 -61.20389 36999 ft 509 kts 52°
2026-04-25 15:19 14.84670 -61.15629 36991 ft 509 kts 52°
2026-04-25 15:19 14.89855 -61.08981 36998 ft 509 kts 52°
2026-04-25 15:20 14.94306 -61.03275 36998 ft 509 kts 52°
2026-04-25 15:20 14.98730 -60.97598 37001 ft 509 kts 52°
2026-04-25 15:21 15.03178 -60.91884 37005 ft 510 kts 52°
2026-04-25 15:21 15.07640 -60.86149 37002 ft 510 kts 52°
2026-04-25 15:22 15.12095 -60.80417 37002 ft 511 kts 52°
2026-04-25 15:22 15.16518 -60.74722 37001 ft 511 kts 52°
2026-04-25 15:23 15.20980 -60.68972 37004 ft 511 kts 52°
2026-04-25 15:23 15.25406 -60.63266 37007 ft 511 kts 52°
2026-04-25 15:24 15.29856 -60.57524 37012 ft 511 kts 51°
2026-04-25 15:24 15.33570 -60.52728 37002 ft 511 kts 52°
2026-04-25 15:25 15.38783 -60.45991 36994 ft 511 kts 52°
2026-04-25 15:25 15.43208 -60.40268 37010 ft 511 kts 52°
2026-04-25 15:26 15.47663 -60.34502 37006 ft 511 kts 52°
2026-04-25 15:26 15.52082 -60.28779 37007 ft 511 kts 52°
2026-04-25 15:27 15.56536 -60.23004 37006 ft 511 kts 51°
2026-04-25 15:28 15.63215 -60.14338 37001 ft 512 kts 51°
2026-04-25 15:28 15.67641 -60.08590 37003 ft 512 kts 51°
2026-04-25 15:29 15.72088 -60.02810 37005 ft 512 kts 51°
2026-04-25 15:29 15.76536 -59.97024 37005 ft 512 kts 51°
2026-04-25 15:30 15.79484 -59.93185 37007 ft 512 kts 51°
2026-04-25 15:30 15.85406 -59.85471 37011 ft 511 kts 51°
2026-04-25 15:31 15.89819 -59.79717 37012 ft 511 kts 51°
2026-04-25 15:31 15.94258 -59.73924 37005 ft 511 kts 51°
2026-04-25 15:32 15.98695 -59.68129 37011 ft 511 kts 51°
2026-04-25 15:32 16.03099 -59.62373 37005 ft 511 kts 51°
2026-04-25 15:33 16.09758 -59.53660 37014 ft 512 kts 51°
2026-04-25 15:33 16.14192 -59.47852 37009 ft 512 kts 51°
2026-04-25 15:34 16.18598 -59.42077 37006 ft 512 kts 51°
2026-04-25 15:34 16.21564 -59.38188 37013 ft 512 kts 51°
2026-04-25 15:35 16.29670 -59.27547 37023 ft 512 kts 51°
2026-04-25 15:36 16.36322 -59.18799 37012 ft 513 kts 51°
2026-04-25 15:36 16.40738 -59.12986 37010 ft 514 kts 51°
2026-04-25 15:37 16.45175 -59.07141 37017 ft 514 kts 51°
2026-04-25 15:37 16.49619 -59.01281 37009 ft 514 kts 51°
2026-04-25 15:38 16.54032 -58.95458 37014 ft 513 kts 51°
2026-04-25 15:38 16.58462 -58.89607 37008 ft 514 kts 51°
2026-04-25 15:39 16.62899 -58.83742 37019 ft 515 kts 51°
2026-04-25 15:39 16.67312 -58.77905 37014 ft 515 kts 51°
2026-04-25 15:40 16.70289 -58.73964 37015 ft 515 kts 51°
2026-04-25 15:40 16.76204 -58.66127 37011 ft 516 kts 51°
2026-04-25 15:41 16.80613 -58.60279 37020 ft 516 kts 51°
2026-04-25 15:41 16.85055 -58.54384 37024 ft 516 kts 51°
2026-04-25 15:42 16.89502 -58.48476 37017 ft 517 kts 51°
2026-04-25 15:42 16.93195 -58.43566 37010 ft 516 kts 51°
2026-04-25 15:43 16.98362 -58.36690 37013 ft 516 kts 51°
2026-04-25 15:43 17.02058 -58.31768 37015 ft 516 kts 51°
2026-04-25 15:44 17.06486 -58.25867 37015 ft 516 kts 51°
2026-04-25 15:44 17.10927 -58.19943 37025 ft 517 kts 51°
2026-04-25 15:45 17.15368 -58.14014 37013 ft 516 kts 51°
2026-04-25 15:45 17.19034 -58.09115 37024 ft 517 kts 51°
2026-04-25 15:46 17.24192 -58.02217 37019 ft 516 kts 51°
2026-04-25 15:46 17.28630 -57.96276 37028 ft 517 kts 51°
2026-04-25 15:47 17.33036 -57.90373 37030 ft 517 kts 51°
2026-04-25 15:47 17.37471 -57.84426 37027 ft 517 kts 51°
2026-04-25 15:48 17.41897 -57.78485 37027 ft 517 kts 51°
2026-04-25 15:48 17.46328 -57.72533 37025 ft 517 kts 51°
2026-04-25 15:49 17.50720 -57.66627 37041 ft 517 kts 51°
2026-04-25 15:49 17.55143 -57.60674 37029 ft 517 kts 51°
2026-04-25 15:50 17.59576 -57.54703 37031 ft 518 kts 51°
2026-04-25 15:50 17.63999 -57.48739 37033 ft 518 kts 51°
2026-04-25 15:51 17.67680 -57.43775 37031 ft 518 kts 51°
2026-04-25 15:51 17.72827 -57.36825 37029 ft 518 kts 51°
2026-04-25 15:52 17.77218 -57.30890 37030 ft 518 kts 51°
2026-04-25 15:52 17.81640 -57.24906 37036 ft 518 kts 51°
2026-04-25 15:53 17.86072 -57.18904 37033 ft 518 kts 51°
2026-04-25 15:53 17.90473 -57.12938 37035 ft 519 kts 51°
2026-04-25 15:54 17.94902 -57.06927 37041 ft 518 kts 51°
2026-04-25 15:54 17.99295 -57.00927 37026 ft 519 kts 54°
2026-04-25 15:55 18.02795 -56.94299 37049 ft 519 kts 65°
2026-04-25 15:55 18.05826 -56.87439 37038 ft 520 kts 66°
2026-04-25 15:56 18.08871 -56.80541 37039 ft 520 kts 65°
2026-04-25 15:56 18.11962 -56.73664 37032 ft 519 kts 65°
2026-04-25 15:57 18.15055 -56.66845 37035 ft 519 kts 65°
2026-04-25 15:57 18.18169 -56.59979 37035 ft 519 kts 65°
2026-04-25 15:58 18.21273 -56.53122 37037 ft 518 kts 65°
2026-04-25 15:58 18.24370 -56.46267 37033 ft 518 kts 65°
2026-04-25 15:59 18.27442 -56.39456 37036 ft 518 kts 65°
2026-04-25 15:59 18.30533 -56.32596 37035 ft 518 kts 65°
2026-04-25 16:00 18.32580 -56.28051 37036 ft 517 kts 65°
2026-04-25 16:00 18.36684 -56.18924 37037 ft 517 kts 65°
2026-04-25 16:01 18.39761 -56.12072 37037 ft 518 kts 65°
2026-04-25 16:01 18.42840 -56.05208 37042 ft 518 kts 65°
2026-04-25 16:02 18.45922 -55.98330 37041 ft 519 kts 65°
2026-04-25 16:02 18.48990 -55.91474 37041 ft 519 kts 65°
2026-04-25 16:03 18.52083 -55.84555 37040 ft 520 kts 65°
2026-04-25 16:03 18.55143 -55.77703 37041 ft 520 kts 65°
2026-04-25 16:04 18.58227 -55.70787 37043 ft 520 kts 65°
2026-04-25 16:04 18.61288 -55.63916 37042 ft 521 kts 65°
2026-04-25 16:05 18.64366 -55.56998 37042 ft 521 kts 65°
2026-04-25 16:06 18.68988 -55.46595 37047 ft 521 kts 65°
2026-04-25 16:06 18.72042 -55.39710 37041 ft 520 kts 65°
2026-04-25 16:07 18.75109 -55.32787 37041 ft 520 kts 65°
2026-04-25 16:07 18.78168 -55.25874 37032 ft 521 kts 65°
2026-04-25 16:08 18.81237 -55.18932 37045 ft 521 kts 65°
2026-04-25 16:08 18.84225 -55.12163 37042 ft 521 kts 65°
2026-04-25 16:09 18.87330 -55.05122 37044 ft 521 kts 65°
2026-04-25 16:09 18.90244 -54.98507 37045 ft 521 kts 65°
2026-04-25 16:10 18.93327 -54.91498 37042 ft 521 kts 65°
2026-04-25 16:10 18.96517 -54.84239 37054 ft 521 kts 65°
2026-04-25 16:11 18.99591 -54.77234 37049 ft 522 kts 65°
2026-04-25 16:11 19.02644 -54.70267 37051 ft 522 kts 65°
2026-04-25 16:12 19.05695 -54.63298 37044 ft 522 kts 65°
2026-04-25 16:12 19.08721 -54.56376 37047 ft 521 kts 65°
2026-04-25 16:13 19.11771 -54.49393 37040 ft 521 kts 65°
2026-04-25 16:13 19.14789 -54.42473 37057 ft 521 kts 65°
2026-04-25 16:14 19.17333 -54.36633 37048 ft 521 kts 65°
2026-04-25 16:14 19.20350 -54.29700 37050 ft 522 kts 65°
2026-04-25 16:15 19.23392 -54.22701 37046 ft 522 kts 65°
2026-04-25 16:15 19.26424 -54.15716 37048 ft 521 kts 65°
2026-04-25 16:16 19.29463 -54.08706 37051 ft 521 kts 65°
2026-04-25 16:16 19.32477 -54.01746 37065 ft 521 kts 65°
2026-04-25 16:17 19.35481 -53.94801 37056 ft 522 kts 65°
2026-04-25 16:17 19.38508 -53.87791 37052 ft 522 kts 65°
2026-04-25 16:18 19.41515 -53.80821 37052 ft 522 kts 65°
2026-04-25 16:18 19.44537 -53.73808 37054 ft 522 kts 65°
2026-04-25 16:19 19.47552 -53.66801 37050 ft 522 kts 65°
2026-04-25 16:19 19.50568 -53.59782 37063 ft 521 kts 65°
2026-04-25 16:20 19.55062 -53.49309 37059 ft 523 kts 65°
2026-04-25 16:21 19.59568 -53.38787 37057 ft 523 kts 65°
2026-04-25 16:21 19.62599 -53.31697 37055 ft 524 kts 65°
2026-04-25 16:22 19.65608 -53.24652 37044 ft 524 kts 65°
2026-04-25 16:22 19.68600 -53.17636 37060 ft 524 kts 65°
2026-04-25 16:23 19.71605 -53.10580 37054 ft 525 kts 65°
2026-04-25 16:23 19.74608 -53.03520 37056 ft 525 kts 65°
2026-04-25 16:24 19.77621 -52.96428 37057 ft 525 kts 65°
2026-04-25 16:24 19.80621 -52.89357 37053 ft 525 kts 65°
2026-04-25 16:25 19.83602 -52.82321 37053 ft 525 kts 65°
2026-04-25 16:25 19.86604 -52.75227 37057 ft 525 kts 65°
2026-04-25 16:26 19.89583 -52.68178 37053 ft 526 kts 65°
2026-04-25 16:26 19.92581 -52.61074 37055 ft 526 kts 65°
2026-04-25 16:27 19.95576 -52.53969 37053 ft 526 kts 65°
2026-04-25 16:27 19.98552 -52.46899 37056 ft 526 kts 65°
2026-04-25 16:28 20.01534 -52.39806 37055 ft 525 kts 65°
2026-04-25 16:28 20.04513 -52.32711 37058 ft 525 kts 65°
2026-04-25 16:29 20.07489 -52.25612 37057 ft 524 kts 65°
2026-04-25 16:29 20.10463 -52.18508 37053 ft 524 kts 65°
2026-04-25 16:30 20.13413 -52.11453 37052 ft 524 kts 65°
2026-04-25 16:30 20.16375 -52.04361 37056 ft 524 kts 65°
2026-04-25 16:31 20.19337 -51.97259 37065 ft 524 kts 65°
2026-04-25 16:31 20.22275 -51.90203 37057 ft 524 kts 65°
2026-04-25 16:32 20.25232 -51.83095 37051 ft 525 kts 65°
2026-04-25 16:32 20.28178 -51.76001 37057 ft 525 kts 65°
2026-04-25 16:33 20.31135 -51.68874 37056 ft 525 kts 65°
2026-04-25 16:33 20.34075 -51.61776 37060 ft 525 kts 65°
2026-04-25 16:34 20.37027 -51.54640 37054 ft 526 kts 65°
2026-04-25 16:34 20.39979 -51.47493 37059 ft 526 kts 65°
2026-04-25 16:35 20.42913 -51.40381 37057 ft 526 kts 65°
2026-04-25 16:35 20.45861 -51.33226 37067 ft 526 kts 65°
2026-04-25 16:36 20.48810 -51.26057 37056 ft 526 kts 65°
2026-04-25 16:36 20.51731 -51.18947 37069 ft 527 kts 65°
2026-04-25 16:37 20.54680 -51.11762 37061 ft 528 kts 65°
2026-04-25 16:37 20.57633 -51.04553 37061 ft 528 kts 65°
2026-04-25 16:38 20.60578 -50.97354 37058 ft 528 kts 65°
2026-04-25 16:38 20.63501 -50.90200 37056 ft 528 kts 65°
2026-04-25 16:39 20.66438 -50.83001 37062 ft 527 kts 65°
2026-04-25 16:39 20.69363 -50.75821 37065 ft 527 kts 65°
2026-04-25 16:40 20.72288 -50.68632 37060 ft 528 kts 65°
2026-04-25 16:40 20.75209 -50.61442 37068 ft 527 kts 65°
2026-04-25 16:41 20.78111 -50.54288 37058 ft 527 kts 65°
2026-04-25 16:41 20.82480 -50.43502 37082 ft 526 kts 65°
2026-04-25 16:42 20.85391 -50.36301 37063 ft 527 kts 65°
2026-04-25 16:42 20.88302 -50.29088 37063 ft 527 kts 65°
2026-04-25 16:43 20.91194 -50.21915 37064 ft 528 kts 65°
2026-04-25 16:43 20.94103 -50.14686 37065 ft 527 kts 65°
2026-04-25 16:44 20.97005 -50.07466 37062 ft 527 kts 65°
2026-04-25 16:44 20.99863 -50.00284 37062 ft 528 kts 68°
2026-04-25 16:45 21.01876 -49.92682 37068 ft 530 kts 76°
2026-04-25 16:45 21.03575 -49.84994 37067 ft 530 kts 76°
2026-04-25 16:46 21.05276 -49.77344 37064 ft 530 kts 76°
2026-04-25 16:46 21.06449 -49.72198 37064 ft 530 kts 75°
2026-04-25 16:47 21.08800 -49.62022 37064 ft 530 kts 75°
2026-04-25 16:47 21.10575 -49.54342 37066 ft 530 kts 75°
2026-04-25 16:48 21.12344 -49.46654 37065 ft 531 kts 75°
2026-04-25 16:48 21.14096 -49.39017 37060 ft 531 kts 75°
2026-04-25 16:49 21.15856 -49.31323 37067 ft 531 kts 75°
2026-04-25 16:49 21.17610 -49.23638 37065 ft 531 kts 75°
2026-04-25 16:50 21.19356 -49.15975 37063 ft 531 kts 75°
2026-04-25 16:50 21.21105 -49.08284 37080 ft 531 kts 75°
2026-04-25 16:51 21.22852 -49.00581 37060 ft 531 kts 75°
2026-04-25 16:51 21.24006 -48.95481 37065 ft 531 kts 75°
2026-04-25 16:52 21.26322 -48.85231 37063 ft 531 kts 75°
2026-04-25 16:52 21.28056 -48.77536 37065 ft 531 kts 75°
2026-04-25 16:53 21.30645 -48.66011 37070 ft 531 kts 75°
2026-04-25 16:54 21.32370 -48.58312 37076 ft 531 kts 75°
2026-04-25 16:54 21.33802 -48.51903 37065 ft 531 kts 75°
2026-04-25 16:55 21.35525 -48.44180 37071 ft 530 kts 75°
2026-04-25 16:55 21.37241 -48.36473 37070 ft 530 kts 75°
2026-04-25 16:56 21.38954 -48.28758 37071 ft 530 kts 75°
2026-04-25 16:56 21.40652 -48.21096 37072 ft 531 kts 75°
2026-04-25 16:57 21.42357 -48.13382 37074 ft 531 kts 75°
2026-04-25 16:57 21.44060 -48.05662 37073 ft 531 kts 75°
2026-04-25 16:58 21.45760 -47.97936 37068 ft 531 kts 76°
2026-04-25 16:58 21.47445 -47.90260 37072 ft 531 kts 76°
2026-04-25 16:59 21.49140 -47.82522 37075 ft 531 kts 76°
2026-04-25 16:59 21.50832 -47.74780 37073 ft 531 kts 76°
2026-04-25 17:00 21.52518 -47.67045 37084 ft 531 kts 75°
2026-04-25 17:00 21.54189 -47.59364 37070 ft 531 kts 75°
2026-04-25 17:01 21.55870 -47.51619 37080 ft 531 kts 76°
2026-04-25 17:01 21.57547 -47.43868 37069 ft 531 kts 76°
2026-04-25 17:02 21.59220 -47.36124 37072 ft 531 kts 76°
2026-04-25 17:02 21.60879 -47.28421 37076 ft 531 kts 76°
2026-04-25 17:03 21.62547 -47.20661 37089 ft 531 kts 75°
2026-04-25 17:03 21.64198 -47.12963 37067 ft 531 kts 75°
2026-04-25 17:04 21.65854 -47.05223 37075 ft 531 kts 76°
2026-04-25 17:04 21.67507 -46.97475 37079 ft 530 kts 76°
2026-04-25 17:05 21.69157 -46.89728 37075 ft 530 kts 76°
2026-04-25 17:05 21.71613 -46.78157 37076 ft 530 kts 76°
2026-04-25 17:06 21.73250 -46.70419 37074 ft 530 kts 75°
2026-04-25 17:06 21.74872 -46.62735 37074 ft 530 kts 75°
2026-04-25 17:07 21.76501 -46.55002 37078 ft 529 kts 75°
2026-04-25 17:07 21.78128 -46.47258 37078 ft 529 kts 75°
2026-04-25 17:08 21.79749 -46.39520 37080 ft 529 kts 76°
2026-04-25 17:08 21.81355 -46.31841 37097 ft 529 kts 75°
2026-04-25 17:09 21.82971 -46.24091 37080 ft 529 kts 75°
2026-04-25 17:09 21.84572 -46.16394 37076 ft 530 kts 75°
2026-04-25 17:10 21.86182 -46.08639 37083 ft 530 kts 76°
2026-04-25 17:10 21.87778 -46.00929 37079 ft 530 kts 76°
2026-04-25 17:11 21.89379 -45.93173 37070 ft 530 kts 76°
2026-04-25 17:11 21.90975 -45.85424 37092 ft 530 kts 76°
2026-04-25 17:12 21.92563 -45.77697 37087 ft 531 kts 76°
2026-04-25 17:12 21.94156 -45.69922 37081 ft 531 kts 76°
2026-04-25 17:13 21.95477 -45.63464 37081 ft 531 kts 76°
2026-04-25 17:13 21.97329 -45.54384 37084 ft 530 kts 76°
2026-04-25 17:14 21.98902 -45.46650 37082 ft 530 kts 76°
2026-04-25 17:14 22.00478 -45.38884 37087 ft 530 kts 76°
2026-04-25 17:15 22.02053 -45.31099 37086 ft 531 kts 76°
2026-04-25 17:15 22.03624 -45.23315 37085 ft 531 kts 76°
2026-04-25 17:16 22.05185 -45.15563 37084 ft 531 kts 76°
2026-04-25 17:16 22.06748 -45.07778 37084 ft 531 kts 76°
2026-04-25 17:17 22.08300 -45.00033 37092 ft 531 kts 76°
2026-04-25 17:17 22.09856 -44.92246 37084 ft 531 kts 76°
2026-04-25 17:18 22.11408 -44.84454 37082 ft 531 kts 76°
2026-04-25 17:18 22.12959 -44.76652 37086 ft 531 kts 76°
2026-04-25 17:19 22.14502 -44.68869 37084 ft 531 kts 76°
2026-04-25 17:19 22.16033 -44.61123 37092 ft 531 kts 76°
2026-04-25 17:20 22.17571 -44.53324 37088 ft 531 kts 76°
2026-04-25 17:20 22.19106 -44.45520 37086 ft 531 kts 76°
2026-04-25 17:21 22.20631 -44.37747 37087 ft 531 kts 76°
2026-04-25 17:21 22.22157 -44.29948 37085 ft 531 kts 76°
2026-04-25 17:22 22.23170 -44.24761 37088 ft 531 kts 76°
2026-04-25 17:22 22.25196 -44.14352 37086 ft 531 kts 76°
2026-04-25 17:23 22.26706 -44.06574 37087 ft 532 kts 76°
2026-04-25 17:23 22.28221 -43.98747 37082 ft 532 kts 76°
2026-04-25 17:24 22.29735 -43.90903 37094 ft 532 kts 76°
2026-04-25 17:24 22.31235 -43.83113 37086 ft 532 kts 76°
2026-04-25 17:25 22.32738 -43.75286 37099 ft 533 kts 76°
2026-04-25 17:25 22.34243 -43.67425 37087 ft 533 kts 76°
2026-04-25 17:26 22.35734 -43.59620 37088 ft 533 kts 76°
2026-04-25 17:26 22.37230 -43.51764 37095 ft 534 kts 76°
2026-04-25 17:27 22.38725 -43.43895 37094 ft 534 kts 76°
2026-04-25 17:27 22.39715 -43.38667 37089 ft 534 kts 76°
2026-04-25 17:28 22.41699 -43.28169 37073 ft 534 kts 76°
2026-04-25 17:28 22.43181 -43.20301 37092 ft 533 kts 76°
2026-04-25 17:29 22.44658 -43.12433 37090 ft 533 kts 76°
2026-04-25 17:29 22.46123 -43.04612 37095 ft 532 kts 76°
2026-04-25 17:30 22.47583 -42.96798 37096 ft 532 kts 76°
2026-04-25 17:30 22.49046 -42.88944 37100 ft 532 kts 76°
2026-04-25 17:31 22.50508 -42.81071 37088 ft 532 kts 76°
2026-04-25 17:31 22.51966 -42.73201 37089 ft 533 kts 76°
2026-04-25 17:32 22.53408 -42.65391 37094 ft 533 kts 76°
2026-04-25 17:32 22.54858 -42.57517 37092 ft 533 kts 76°
2026-04-25 17:33 22.56307 -42.49625 37099 ft 533 kts 76°
2026-04-25 17:33 22.57742 -42.41788 37099 ft 533 kts 76°
2026-04-25 17:34 22.59184 -42.33891 37097 ft 534 kts 76°
2026-04-25 17:34 22.60620 -42.26006 37096 ft 534 kts 76°
2026-04-25 17:35 22.62041 -42.18179 37094 ft 534 kts 76°
2026-04-25 17:35 22.63471 -42.10277 37098 ft 534 kts 76°
2026-04-25 17:36 22.64896 -42.02385 37096 ft 534 kts 76°
2026-04-25 17:36 22.66309 -41.94528 37102 ft 533 kts 76°
2026-04-25 17:37 22.67497 -41.87912 37093 ft 533 kts 76°
2026-04-25 17:37 22.68909 -41.80022 37095 ft 533 kts 76°
2026-04-25 17:38 22.70081 -41.73459 37109 ft 534 kts 76°
2026-04-25 17:38 22.71718 -41.64258 37100 ft 534 kts 76°
2026-04-25 17:39 22.73120 -41.56355 37086 ft 534 kts 76°
2026-04-25 17:39 22.74518 -41.48451 37100 ft 533 kts 76°
2026-04-25 17:40 22.75907 -41.40573 37096 ft 533 kts 76°
2026-04-25 17:40 22.77293 -41.32691 37105 ft 533 kts 76°
2026-04-25 17:41 22.78678 -41.24795 37098 ft 533 kts 76°
2026-04-25 17:41 22.80061 -41.16879 37102 ft 533 kts 76°
2026-04-25 17:42 22.81434 -41.09001 37101 ft 533 kts 76°
2026-04-25 17:42 22.82808 -41.01089 37103 ft 533 kts 76°
2026-04-25 17:43 22.84172 -40.93215 37101 ft 533 kts 76°
2026-04-25 17:43 22.85539 -40.85300 37101 ft 534 kts 76°
2026-04-25 17:44 22.86902 -40.77383 37108 ft 534 kts 76°
2026-04-25 17:44 22.88261 -40.69463 37116 ft 534 kts 76°
2026-04-25 17:45 22.89389 -40.62869 37104 ft 534 kts 76°
2026-04-25 17:45 22.90965 -40.53631 37102 ft 535 kts 76°
2026-04-25 17:46 22.92316 -40.45684 37108 ft 535 kts 76°
2026-04-25 17:46 22.93663 -40.37735 37103 ft 536 kts 76°
2026-04-25 17:47 22.95002 -40.29811 37106 ft 536 kts 76°
2026-04-25 17:47 22.96344 -40.21843 37110 ft 536 kts 76°
2026-04-25 17:48 22.98341 -40.09937 37104 ft 537 kts 76°
2026-04-25 17:49 22.99416 -40.01916 37102 ft 541 kts 86°
2026-04-25 17:49 22.98713 -39.93761 37084 ft 544 kts 104°
2026-04-25 17:50 22.96785 -39.85820 37099 ft 543 kts 105°
2026-04-25 17:50 22.94807 -39.77941 37106 ft 543 kts 105°
2026-04-25 17:51 22.92877 -39.70013 37106 ft 544 kts 105°
2026-04-25 17:51 22.90977 -39.62046 37106 ft 544 kts 104°
2026-04-25 17:52 22.89086 -39.54091 37107 ft 545 kts 104°
2026-04-25 17:52 22.87196 -39.46172 37086 ft 545 kts 104°
2026-04-25 17:53 22.85284 -39.38203 37100 ft 544 kts 104°
2026-04-25 17:53 22.83382 -39.30295 37102 ft 544 kts 104°
2026-04-25 17:54 22.81466 -39.22350 37105 ft 544 kts 104°
2026-04-25 17:54 22.79546 -39.14402 37102 ft 544 kts 105°
2026-04-25 17:55 22.77622 -39.06457 37104 ft 544 kts 104°
2026-04-25 17:55 22.75700 -38.98540 37093 ft 544 kts 105°
2026-04-25 17:56 22.73778 -38.90640 37098 ft 544 kts 105°
2026-04-25 17:56 22.71846 -38.82718 37105 ft 543 kts 105°
2026-04-25 17:57 22.69912 -38.74804 37100 ft 543 kts 105°
2026-04-25 17:57 22.67972 -38.66885 37105 ft 543 kts 105°
2026-04-25 17:58 22.66041 -38.59019 37106 ft 543 kts 105°
2026-04-25 17:58 22.64094 -38.51110 37083 ft 543 kts 105°
2026-04-25 17:59 22.62143 -38.43199 37099 ft 542 kts 105°
2026-04-25 17:59 22.60205 -38.35358 37102 ft 542 kts 105°
2026-04-25 18:00 22.58245 -38.27452 37103 ft 542 kts 105°
2026-04-25 18:00 22.56285 -38.19555 37108 ft 542 kts 105°
2026-04-25 18:01 22.54331 -38.11706 37106 ft 543 kts 105°
2026-04-25 18:01 22.52359 -38.03802 37101 ft 543 kts 105°
2026-04-25 18:02 22.50394 -37.95940 37105 ft 544 kts 105°
2026-04-25 18:02 22.48411 -37.88028 37103 ft 544 kts 105°
2026-04-25 18:03 22.46423 -37.80109 37105 ft 545 kts 105°
2026-04-25 18:03 22.44426 -37.72177 37105 ft 545 kts 105°
2026-04-25 18:04 22.42429 -37.64257 37106 ft 546 kts 105°
2026-04-25 18:04 22.40436 -37.56376 37106 ft 546 kts 105°
2026-04-25 18:05 22.38426 -37.48441 37095 ft 545 kts 105°
2026-04-25 18:05 22.36416 -37.40528 37102 ft 545 kts 105°
2026-04-25 18:06 22.34414 -37.32661 37105 ft 545 kts 105°
2026-04-25 18:06 22.32398 -37.24754 37105 ft 545 kts 105°
2026-04-25 18:07 22.30375 -37.16839 37111 ft 546 kts 105°
2026-04-25 18:07 22.28361 -37.08977 37104 ft 546 kts 105°
2026-04-25 18:08 22.26325 -37.01045 37093 ft 545 kts 105°
2026-04-25 18:08 22.24305 -36.93195 37100 ft 545 kts 105°
2026-04-25 18:09 22.22270 -36.85303 37104 ft 545 kts 105°
2026-04-25 18:09 22.20240 -36.77446 37103 ft 545 kts 105°
2026-04-25 18:10 22.18193 -36.69540 37106 ft 545 kts 105°
2026-04-25 18:10 22.16140 -36.61629 37103 ft 546 kts 105°
2026-04-25 18:11 22.14099 -36.53777 37083 ft 546 kts 105°
2026-04-25 18:11 22.12042 -36.45884 37096 ft 545 kts 105°
2026-04-25 18:12 22.09985 -36.38009 37101 ft 544 kts 105°
2026-04-25 18:12 22.07927 -36.30145 37105 ft 544 kts 105°
2026-04-25 18:13 22.05878 -36.22330 37109 ft 544 kts 105°
2026-04-25 18:13 22.03811 -36.14466 37104 ft 544 kts 105°
2026-04-25 18:14 22.00716 -36.02714 37084 ft 544 kts 105°
2026-04-25 18:14 21.98401 -35.94939 37106 ft 543 kts 111°
2026-04-25 18:15 21.95675 -35.87324 37101 ft 543 kts 112°
2026-04-25 18:15 21.92901 -35.79737 37105 ft 543 kts 112°
2026-04-25 18:16 21.90194 -35.72179 37109 ft 544 kts 111°
2026-04-25 18:17 21.86610 -35.62032 37106 ft 544 kts 111°
2026-04-25 18:17 21.83917 -35.54404 37094 ft 543 kts 111°
2026-04-25 18:18 21.81222 -35.46798 37105 ft 543 kts 111°
2026-04-25 18:18 21.78518 -35.39186 37107 ft 543 kts 111°
2026-04-25 18:19 21.75829 -35.31631 37103 ft 543 kts 111°
2026-04-25 18:19 21.73119 -35.24029 37111 ft 543 kts 111°
2026-04-25 18:20 21.70404 -35.16423 37101 ft 544 kts 111°
2026-04-25 18:20 21.67700 -35.08861 37090 ft 543 kts 111°
2026-04-25 18:21 21.64983 -35.01275 37095 ft 543 kts 111°
2026-04-25 18:21 21.62267 -34.93707 37099 ft 543 kts 111°
2026-04-25 18:22 21.59558 -34.86166 37106 ft 543 kts 111°
2026-04-25 18:22 21.56829 -34.78586 37099 ft 543 kts 111°
2026-04-25 18:23 21.54097 -34.71009 37100 ft 543 kts 112°
2026-04-25 18:23 21.51378 -34.63480 37092 ft 543 kts 112°
2026-04-25 18:24 21.48639 -34.55906 37095 ft 543 kts 112°
2026-04-25 18:24 21.45897 -34.48338 37097 ft 542 kts 112°
2026-04-25 18:25 21.43180 -34.40852 37094 ft 543 kts 112°
2026-04-25 18:25 21.40428 -34.33280 37102 ft 543 kts 112°
2026-04-25 18:26 21.37677 -34.25722 37098 ft 543 kts 112°
2026-04-25 18:26 21.34924 -34.18172 37093 ft 542 kts 112°
2026-04-25 18:27 21.32185 -34.10673 37093 ft 542 kts 112°
2026-04-25 18:27 21.29428 -34.03137 37092 ft 542 kts 112°
2026-04-25 18:28 21.26665 -33.95594 37095 ft 542 kts 112°
2026-04-25 18:28 21.23898 -33.88055 37091 ft 542 kts 112°
2026-04-25 18:29 21.19766 -33.76815 37082 ft 542 kts 112°
2026-04-25 18:30 21.14250 -33.61855 37088 ft 540 kts 112°
2026-04-25 18:30 21.11481 -33.54363 37095 ft 539 kts 112°
2026-04-25 18:31 21.08731 -33.46932 37091 ft 539 kts 112°
2026-04-25 18:31 21.05956 -33.39446 37092 ft 539 kts 112°
2026-04-25 18:32 21.03186 -33.31986 37092 ft 540 kts 112°
2026-04-25 18:32 21.00423 -33.24557 37077 ft 540 kts 112°
2026-04-25 18:33 20.97640 -33.17086 37087 ft 540 kts 112°
2026-04-25 18:33 20.94846 -33.09594 37080 ft 541 kts 112°
2026-04-25 18:34 20.92047 -33.02103 37093 ft 542 kts 112°
2026-04-25 18:34 20.89245 -32.94614 37088 ft 542 kts 112°
2026-04-25 18:35 20.86452 -32.87160 37091 ft 543 kts 112°
2026-04-25 18:35 20.83635 -32.79653 37084 ft 543 kts 112°
2026-04-25 18:36 20.80819 -32.72162 37071 ft 542 kts 112°
2026-04-25 18:36 20.78008 -32.64693 37080 ft 541 kts 112°
2026-04-25 18:37 20.75190 -32.57220 37082 ft 541 kts 112°
2026-04-25 18:37 20.72388 -32.49800 37075 ft 541 kts 112°
2026-04-25 18:38 20.69560 -32.42322 37084 ft 541 kts 112°
2026-04-25 18:38 20.66734 -32.34860 37064 ft 541 kts 112°
2026-04-25 18:39 20.63918 -32.27435 37077 ft 541 kts 113°
2026-04-25 18:39 20.61091 -32.19994 37076 ft 540 kts 113°
2026-04-25 18:40 20.58266 -32.12569 37076 ft 540 kts 113°
2026-04-25 18:40 20.55452 -32.05181 37080 ft 540 kts 113°
2026-04-25 18:41 20.52617 -31.97752 37081 ft 540 kts 113°
2026-04-25 18:41 20.49774 -31.90310 37071 ft 540 kts 113°
2026-04-25 18:42 20.47891 -31.85388 37057 ft 540 kts 113°
2026-04-25 18:42 20.44113 -31.75524 37068 ft 538 kts 113°
2026-04-25 18:43 20.41208 -31.68144 37065 ft 538 kts 115°
2026-04-25 18:43 20.38023 -31.60923 37070 ft 537 kts 117°
2026-04-25 18:44 20.34795 -31.53780 37067 ft 537 kts 117°
2026-04-25 18:44 20.31588 -31.46585 37073 ft 538 kts 116°
2026-04-25 18:45 20.28399 -31.39353 37051 ft 538 kts 116°
2026-04-25 18:45 20.25244 -31.32183 37058 ft 537 kts 116°
2026-04-25 18:46 20.22069 -31.24981 37065 ft 537 kts 116°
2026-04-25 18:46 20.18890 -31.17788 37066 ft 537 kts 116°
2026-04-25 18:47 20.15702 -31.10587 37059 ft 536 kts 116°
2026-04-25 18:47 20.12532 -31.03436 37059 ft 536 kts 116°
2026-04-25 18:48 20.09340 -30.96244 37044 ft 536 kts 116°
2026-04-25 18:48 20.06156 -30.89079 37057 ft 535 kts 116°
2026-04-25 18:49 20.02965 -30.81909 37063 ft 535 kts 116°
2026-04-25 18:49 19.99780 -30.74760 37057 ft 535 kts 116°
2026-04-25 18:50 19.96601 -30.67636 37063 ft 535 kts 116°
2026-04-25 18:50 19.93487 -30.60665 37061 ft 535 kts 116°
2026-04-25 18:51 19.91327 -30.55834 37059 ft 535 kts 116°
2026-04-25 18:51 19.87058 -30.46301 37048 ft 534 kts 116°
2026-04-25 18:52 19.83863 -30.39177 37060 ft 533 kts 116°
2026-04-25 18:52 19.80684 -30.32097 37054 ft 533 kts 116°
2026-04-25 18:53 19.77482 -30.24976 37054 ft 533 kts 116°
2026-04-25 18:53 19.74304 -30.17917 37060 ft 532 kts 116°
2026-04-25 18:54 19.69500 -30.07264 37060 ft 533 kts 116°
2026-04-25 18:55 19.66306 -30.00190 37050 ft 532 kts 116°
2026-04-25 18:55 19.63107 -29.93115 37051 ft 532 kts 116°
2026-04-25 18:56 19.59899 -29.86032 37051 ft 532 kts 116°
2026-04-25 18:56 19.56682 -29.78936 37050 ft 532 kts 117°
2026-04-25 18:57 19.53487 -29.71897 37049 ft 532 kts 117°
2026-04-25 18:57 19.50811 -29.66008 37049 ft 532 kts 117°
2026-04-25 18:58 19.47590 -29.58928 37049 ft 532 kts 117°
2026-04-25 18:58 19.42769 -29.48347 37041 ft 530 kts 117°
2026-04-25 18:59 19.36366 -29.34325 37046 ft 529 kts 117°
2026-04-25 19:00 19.31545 -29.23793 37052 ft 529 kts 117°
2026-04-25 19:01 19.26709 -29.13244 37047 ft 530 kts 117°
2026-04-25 19:01 19.23500 -29.06254 37038 ft 529 kts 117°
2026-04-25 19:02 19.18667 -28.95746 37039 ft 528 kts 117°
2026-04-25 19:03 19.14379 -28.86439 37038 ft 528 kts 117°
2026-04-25 19:03 19.10637 -28.78328 37038 ft 528 kts 117°
2026-04-25 19:04 19.05812 -28.67885 37036 ft 528 kts 117°
2026-04-25 19:05 18.99346 -28.53923 37033 ft 529 kts 117°
2026-04-25 19:06 18.96109 -28.46947 37032 ft 529 kts 117°
2026-04-25 19:06 18.91235 -28.36456 37034 ft 529 kts 117°
2026-04-25 19:07 18.86389 -28.26044 37029 ft 530 kts 117°
2026-04-25 19:08 18.81500 -28.15559 37020 ft 529 kts 117°
2026-04-25 19:09 18.75552 -28.02827 37032 ft 527 kts 117°
2026-04-25 19:10 18.70133 -27.91252 37027 ft 526 kts 117°
2026-04-25 19:10 18.66913 -27.84384 37031 ft 525 kts 117°
2026-04-25 19:11 18.63671 -27.77477 37031 ft 525 kts 117°
2026-04-25 19:11 18.60422 -27.70565 37030 ft 525 kts 117°
2026-04-25 19:12 18.57174 -27.63660 37023 ft 524 kts 117°
2026-04-25 19:12 18.53933 -27.56781 37024 ft 523 kts 117°
2026-04-25 19:13 18.50698 -27.49921 37029 ft 523 kts 117°
2026-04-25 19:13 18.47454 -27.43050 37024 ft 523 kts 117°
2026-04-25 19:14 18.44226 -27.36220 37023 ft 523 kts 117°
2026-04-25 19:14 18.40973 -27.29347 37022 ft 523 kts 117°
2026-04-25 19:15 18.37723 -27.22486 37024 ft 523 kts 118°
2026-04-25 19:15 18.34491 -27.15672 37020 ft 522 kts 118°
2026-04-25 19:16 18.31238 -27.08820 37023 ft 522 kts 118°
2026-04-25 19:16 18.27992 -27.01991 37020 ft 521 kts 118°
2026-04-25 19:17 18.24733 -26.95143 37018 ft 521 kts 118°
2026-04-25 19:17 18.21476 -26.88307 37019 ft 521 kts 118°
2026-04-25 19:18 18.18244 -26.81530 37021 ft 521 kts 118°
2026-04-25 19:18 18.14987 -26.74709 37019 ft 521 kts 118°
2026-04-25 19:19 18.11722 -26.67877 37012 ft 521 kts 118°
2026-04-25 19:19 18.08462 -26.61066 37017 ft 520 kts 118°
2026-04-25 19:20 18.05203 -26.54263 37012 ft 520 kts 118°
2026-04-25 19:20 18.01962 -26.47504 37017 ft 520 kts 118°
2026-04-25 19:21 17.98694 -26.40697 37010 ft 520 kts 118°
2026-04-25 19:21 17.93744 -26.30401 37010 ft 520 kts 118°
2026-04-25 19:22 17.90478 -26.23615 37011 ft 520 kts 118°
2026-04-25 19:23 17.85581 -26.13455 37004 ft 519 kts 118°
2026-04-25 19:23 17.80700 -26.03344 37008 ft 518 kts 118°
2026-04-25 19:24 17.77348 -25.96647 37005 ft 517 kts 120°
2026-04-25 19:25 17.70399 -25.83449 37003 ft 516 kts 121°
2026-04-25 19:25 17.66936 -25.76836 37003 ft 517 kts 120°
2026-04-25 19:26 17.63484 -25.70221 36999 ft 516 kts 120°
2026-04-25 19:26 17.60060 -25.63661 37000 ft 515 kts 121°
2026-04-25 19:27 17.57756 -25.59252 36999 ft 515 kts 121°
2026-04-25 19:27 17.53169 -25.50489 37000 ft 514 kts 121°
2026-04-25 19:28 17.49712 -25.43891 36999 ft 514 kts 121°
2026-04-25 19:28 17.46280 -25.37350 37000 ft 514 kts 121°
2026-04-25 19:29 17.42831 -25.30781 37001 ft 514 kts 121°
2026-04-25 19:29 17.39957 -25.25313 36986 ft 514 kts 121°
2026-04-25 19:30 17.36522 -25.18783 36996 ft 513 kts 121°
2026-04-25 19:30 17.33073 -25.12232 37000 ft 513 kts 121°
2026-04-25 19:31 17.29618 -25.05678 36998 ft 513 kts 121°
2026-04-25 19:31 17.26171 -24.99145 36996 ft 513 kts 121°
2026-04-25 19:32 17.22714 -24.92599 36997 ft 513 kts 121°
2026-04-25 19:32 17.19837 -24.87158 36992 ft 513 kts 121°
2026-04-25 19:33 17.15810 -24.79546 36995 ft 513 kts 121°
2026-04-25 19:33 17.12354 -24.73023 36987 ft 512 kts 121°
2026-04-25 19:34 17.08895 -24.66499 36984 ft 512 kts 121°
2026-04-25 19:34 17.05437 -24.59983 36982 ft 512 kts 121°
2026-04-25 19:35 17.01974 -24.53464 36984 ft 512 kts 121°
2026-04-25 19:35 16.98538 -24.47003 36961 ft 512 kts 121°
2026-04-25 19:36 16.95072 -24.40492 36960 ft 512 kts 121°
2026-04-25 19:36 16.91602 -24.33978 36973 ft 512 kts 121°
2026-04-25 19:37 16.88148 -24.27502 36959 ft 512 kts 121°
2026-04-25 19:37 16.84685 -24.21014 36965 ft 511 kts 121°
2026-04-25 19:38 16.81219 -24.14527 36971 ft 510 kts 121°
2026-04-25 19:38 16.77772 -24.08081 36973 ft 510 kts 121°
2026-04-25 19:39 16.74305 -24.01606 36974 ft 510 kts 121°
2026-04-25 19:39 16.70834 -23.95128 36980 ft 510 kts 121°
2026-04-25 19:40 16.67387 -23.88701 36979 ft 510 kts 121°
2026-04-25 19:40 16.63919 -23.82241 36970 ft 510 kts 121°
2026-04-25 19:41 16.60452 -23.75789 36970 ft 510 kts 121°
2026-04-25 19:41 16.57571 -23.70431 36970 ft 510 kts 121°
2026-04-25 19:42 16.53497 -23.62863 36964 ft 510 kts 121°
2026-04-25 19:42 16.50021 -23.56413 36962 ft 510 kts 121°
2026-04-25 19:43 16.46570 -23.50013 36960 ft 509 kts 121°
2026-04-25 19:43 16.43090 -23.43568 36953 ft 509 kts 122°
2026-04-25 19:44 16.39614 -23.37134 36953 ft 510 kts 122°
2026-04-25 19:44 16.36132 -23.30695 36947 ft 509 kts 122°
2026-04-25 19:45 16.32674 -23.24307 36950 ft 508 kts 122°
2026-04-25 19:45 16.29204 -23.17904 36951 ft 507 kts 122°
2026-04-25 19:46 16.25734 -23.11505 36969 ft 507 kts 122°
2026-04-25 19:46 16.22282 -23.05144 36955 ft 507 kts 122°
2026-04-25 19:47 16.18803 -22.98740 36955 ft 506 kts 122°
2026-04-25 19:47 16.15333 -22.92355 36939 ft 507 kts 122°
2026-04-25 19:48 16.11878 -22.85983 36941 ft 507 kts 121°
2026-04-25 19:48 16.08466 -22.79560 36944 ft 506 kts 121°
2026-04-25 19:49 16.06192 -22.75257 36933 ft 506 kts 121°
2026-04-25 19:49 16.01668 -22.66723 36952 ft 505 kts 121°
2026-04-25 19:50 15.96574 -22.57152 36945 ft 505 kts 121°
2026-04-25 19:51 15.93162 -22.50750 36967 ft 505 kts 121°
2026-04-25 19:51 15.89773 -22.44399 36954 ft 505 kts 121°
2026-04-25 19:52 15.86360 -22.38005 36959 ft 505 kts 121°
2026-04-25 19:52 15.82950 -22.31623 36948 ft 505 kts 121°
2026-04-25 19:53 15.79540 -22.25247 36952 ft 505 kts 121°
2026-04-25 19:53 15.76142 -22.18900 36948 ft 504 kts 121°
2026-04-25 19:54 15.72727 -22.12525 36936 ft 504 kts 121°
2026-04-25 19:54 15.69363 -22.06251 36946 ft 504 kts 121°
2026-04-25 19:55 15.65961 -21.99913 36950 ft 504 kts 121°
2026-04-25 19:55 15.62539 -21.93542 36946 ft 504 kts 121°
2026-04-25 19:56 15.59128 -21.87197 36947 ft 504 kts 121°
2026-04-25 19:56 15.55695 -21.80817 36933 ft 504 kts 121°
2026-04-25 19:57 15.52279 -21.74473 36939 ft 504 kts 121°
2026-04-25 19:57 15.48864 -21.68139 36943 ft 503 kts 121°
2026-04-25 19:58 15.45440 -21.61792 36933 ft 503 kts 121°
2026-04-25 19:58 15.42016 -21.55451 36935 ft 503 kts 121°
2026-04-25 19:59 15.38615 -21.49157 36933 ft 503 kts 121°
2026-04-25 19:59 15.35184 -21.42813 36945 ft 503 kts 121°
2026-04-25 20:00 15.31755 -21.36478 36933 ft 503 kts 121°
2026-04-25 20:00 15.28348 -21.30189 36932 ft 503 kts 121°
2026-04-25 20:01 15.23200 -21.20697 36937 ft 502 kts 121°
2026-04-25 20:01 15.19803 -21.14441 36936 ft 501 kts 121°
2026-04-25 20:02 15.16383 -21.08146 36929 ft 501 kts 121°
2026-04-25 20:02 15.12956 -21.01845 36931 ft 501 kts 121°
2026-04-25 20:03 15.09531 -20.95551 36926 ft 501 kts 121°
2026-04-25 20:03 15.06128 -20.89303 36937 ft 501 kts 121°
2026-04-25 20:04 15.02700 -20.83016 36931 ft 501 kts 121°
2026-04-25 20:04 14.99269 -20.76727 36930 ft 500 kts 121°
2026-04-25 20:05 14.95869 -20.70500 36923 ft 499 kts 121°
2026-04-25 20:05 14.92442 -20.64230 36923 ft 499 kts 121°
2026-04-25 20:06 14.89042 -20.58013 36928 ft 498 kts 121°
2026-04-25 20:06 14.85628 -20.51776 36926 ft 498 kts 121°
2026-04-25 20:07 14.82208 -20.45533 36926 ft 498 kts 121°
2026-04-25 20:07 14.78790 -20.39299 36922 ft 498 kts 121°
2026-04-25 20:08 14.75386 -20.33094 36917 ft 498 kts 121°
2026-04-25 20:08 14.72512 -20.27857 36920 ft 498 kts 121°
2026-04-25 20:09 14.69123 -20.21630 36914 ft 497 kts 118°
2026-04-25 20:09 14.66672 -20.14937 36918 ft 498 kts 109°
2026-04-25 20:10 14.64577 -20.08144 36913 ft 498 kts 108°
2026-04-25 20:10 14.62455 -20.01320 36916 ft 498 kts 109°
2026-04-25 20:11 14.60290 -19.94513 36912 ft 498 kts 109°
2026-04-25 20:11 14.58119 -19.87757 36911 ft 498 kts 109°
2026-04-25 20:12 14.55935 -19.80975 36915 ft 498 kts 109°
2026-04-25 20:12 14.54103 -19.75284 36911 ft 498 kts 109°
2026-04-25 20:13 14.51563 -19.67400 36909 ft 498 kts 109°
2026-04-25 20:13 14.49371 -19.60601 36911 ft 498 kts 109°
2026-04-25 20:14 14.47181 -19.53816 36905 ft 498 kts 109°
2026-04-25 20:14 14.44999 -19.47064 36900 ft 498 kts 109°
2026-04-25 20:15 14.42809 -19.40293 36905 ft 497 kts 109°
2026-04-25 20:15 14.40617 -19.33526 36904 ft 497 kts 109°
2026-04-25 20:16 14.38425 -19.26764 36902 ft 496 kts 109°
2026-04-25 20:16 14.36233 -19.20009 36902 ft 496 kts 109°
2026-04-25 20:17 14.34041 -19.13264 36899 ft 496 kts 109°
2026-04-25 20:17 14.31844 -19.06508 36899 ft 496 kts 109°
2026-04-25 20:18 14.29664 -18.99810 36897 ft 495 kts 109°
2026-04-25 20:18 14.27466 -18.93067 36891 ft 495 kts 109°
2026-04-25 20:19 14.25281 -18.86370 36890 ft 495 kts 109°
2026-04-25 20:19 14.23083 -18.79642 36889 ft 495 kts 109°
2026-04-25 20:20 14.20879 -18.72899 36889 ft 495 kts 109°
2026-04-25 20:20 14.18672 -18.66156 36889 ft 495 kts 109°
2026-04-25 20:21 14.16484 -18.59479 36881 ft 495 kts 109°
2026-04-25 20:21 14.14280 -18.52758 36884 ft 494 kts 109°
2026-04-25 20:22 14.12441 -18.47156 36885 ft 494 kts 109°
2026-04-25 20:22 14.09879 -18.39360 36882 ft 493 kts 109°
2026-04-25 20:23 14.07674 -18.32657 36882 ft 493 kts 109°
2026-04-25 20:23 14.05676 -18.26589 36878 ft 493 kts 109°
2026-04-25 20:24 14.03480 -18.19929 36880 ft 493 kts 109°
2026-04-25 20:24 14.01273 -18.13237 36874 ft 493 kts 109°
2026-04-25 20:25 13.99080 -18.06594 36854 ft 475 kts 109°
2026-04-25 20:25 13.98088 -18.03416 36864 ft 457 kts 109°
2026-04-25 20:25 13.97076 -18.00369 36853 ft 442 kts 110°
2026-04-25 20:26 13.95778 -17.97576 36851 ft 425 kts 127°
2026-04-25 20:26 13.93863 -17.95365 36863 ft 406 kts 143°
2026-04-25 20:26 13.91544 -17.93847 36866 ft 387 kts 160°
2026-04-25 20:26 13.89013 -17.93042 36876 ft 380 kts 175°
2026-04-25 20:27 13.86348 -17.92920 36886 ft 386 kts 190°
2026-04-25 20:27 13.83707 -17.93498 36894 ft 391 kts 204°
2026-04-25 20:27 13.81307 -17.94753 36878 ft 395 kts 219°
2026-04-25 20:27 13.79283 -17.96665 36878 ft 393 kts 234°
2026-04-25 20:28 13.77870 -17.99032 36866 ft 385 kts 250°
2026-04-25 20:28 13.77138 -18.01629 36864 ft 376 kts 263°
2026-04-25 20:28 13.76959 -18.04267 36868 ft 368 kts 274°
2026-04-25 20:28 13.77372 -18.06847 36876 ft 354 kts 285°
2026-04-25 20:29 13.78089 -18.09228 36859 ft 343 kts 288°
2026-04-25 20:29 13.78841 -18.11496 36868 ft 337 kts 288°
2026-04-25 20:29 13.80359 -18.16103 36883 ft 342 kts 288°
2026-04-25 20:30 13.81850 -18.20790 36891 ft 345 kts 287°
2026-04-25 20:30 13.83360 -18.25458 36876 ft 347 kts 295°
2026-04-25 20:31 13.84682 -18.27535 36897 ft 347 kts 310°
2026-04-25 20:31 13.86457 -18.29246 36877 ft 350 kts 321°
2026-04-25 20:31 13.88508 -18.30558 36886 ft 353 kts 332°
2026-04-25 20:31 13.90864 -18.31415 36872 ft 358 kts 345°
2026-04-25 20:32 13.93328 -18.31650 36876 ft 363 kts 359°
2026-04-25 20:32 13.95841 -18.31216 36885 ft 369 kts 14°
2026-04-25 20:32 13.98195 -18.30109 36881 ft 375 kts 30°
2026-04-25 20:32 14.00221 -18.28386 36876 ft 380 kts 45°
2026-04-25 20:33 14.01761 -18.26157 36875 ft 384 kts 61°
2026-04-25 20:33 14.02677 -18.23607 36874 ft 387 kts 77°
2026-04-25 20:33 14.03002 -18.20855 36884 ft 387 kts 90°
2026-04-25 20:33 14.02869 -18.19023 36870 ft 387 kts 101°
2026-04-25 20:34 14.01041 -18.12838 36883 ft 386 kts 110°
2026-04-25 20:34 13.99304 -18.07593 36879 ft 387 kts 109°
2026-04-25 20:35 13.97633 -18.02337 36884 ft 389 kts 108°
2026-04-25 20:35 13.95503 -17.97263 36855 ft 384 kts 135°
2026-04-25 20:36 13.93470 -17.95536 36875 ft 377 kts 156°
2026-04-25 20:36 13.91069 -17.94641 36885 ft 368 kts 175°
2026-04-25 20:36 13.88552 -17.94574 36878 ft 359 kts 194°
2026-04-25 20:36 13.86191 -17.95305 36880 ft 351 kts 212°
2026-04-25 20:37 13.84217 -17.96718 36888 ft 345 kts 229°
2026-04-25 20:37 13.82776 -17.98661 36875 ft 340 kts 246°
2026-04-25 20:37 13.81981 -18.00933 36885 ft 337 kts 261°
2026-04-25 20:37 13.81770 -18.03333 36875 ft 337 kts 274°
2026-04-25 20:38 13.82198 -18.05704 36888 ft 338 kts 286°
2026-04-25 20:38 13.82914 -18.08012 36878 ft 340 kts 288°
2026-04-25 20:38 13.84453 -18.12635 36875 ft 341 kts 288°
2026-04-25 20:39 13.85941 -18.17276 36872 ft 340 kts 287°
2026-04-25 20:39 13.86909 -18.20350 36892 ft 337 kts 287°
2026-04-25 20:40 13.88877 -18.23713 36896 ft 331 kts 315°
2026-04-25 20:40 13.90776 -18.25094 36881 ft 338 kts 330°
2026-04-25 20:40 13.92990 -18.25916 36887 ft 349 kts 345°
2026-04-25 20:40 13.95456 -18.26053 36882 ft 362 kts
2026-04-25 20:41 13.97909 -18.25349 36875 ft 372 kts 23°
2026-04-25 20:41 14.00039 -18.23791 36874 ft 381 kts 44°
2026-04-25 20:41 14.01548 -18.21549 36809 ft 379 kts 64°
2026-04-25 20:41 14.02219 -18.18997 36452 ft 377 kts 84°
2026-04-25 20:42 14.02082 -18.16283 35920 ft 382 kts 104°
2026-04-25 20:42 14.01327 -18.13670 35603 ft 379 kts 108°
2026-04-25 20:42 14.00482 -18.11109 35388 ft 374 kts 109°
2026-04-25 20:42 13.99639 -18.08584 35144 ft 371 kts 109°
2026-04-25 20:43 13.98825 -18.06088 34867 ft 368 kts 108°
2026-04-25 20:43 13.98023 -18.03574 34581 ft 366 kts 108°
2026-04-25 20:43 13.97239 -18.01091 34305 ft 364 kts 107°
2026-04-25 20:43 13.96379 -17.98679 34004 ft 362 kts 121°
2026-04-25 20:44 13.94789 -17.96694 33610 ft 359 kts 145°
2026-04-25 20:44 13.92627 -17.95481 33258 ft 351 kts 167°
2026-04-25 20:44 13.90253 -17.95115 32909 ft 341 kts 187°
2026-04-25 20:44 13.87989 -17.95564 32553 ft 332 kts 207°
2026-04-25 20:45 13.86028 -17.96732 32190 ft 322 kts 226°
2026-04-25 20:45 13.84591 -17.98441 31906 ft 311 kts 245°
2026-04-25 20:45 13.83773 -18.00471 31877 ft 305 kts 260°
2026-04-25 20:45 13.83471 -18.02640 31579 ft 307 kts 273°
2026-04-25 20:46 13.83781 -18.04807 31183 ft 307 kts 286°
2026-04-25 20:46 13.84012 -18.07000 30769 ft 314 kts 267°
2026-04-25 20:46 13.83967 -18.09233 30386 ft 311 kts 283°
2026-04-25 20:46 13.84731 -18.11249 30008 ft 307 kts 306°
2026-04-25 20:47 13.86265 -18.12776 29564 ft 308 kts 329°
2026-04-25 20:47 13.88291 -18.13505 29117 ft 312 kts 352°
2026-04-25 20:47 13.90434 -18.13316 28692 ft 319 kts 14°
2026-04-25 20:47 13.92433 -18.12269 28272 ft 326 kts 30°
2026-04-25 20:48 13.94299 -18.10889 27859 ft 333 kts 32°
2026-04-25 20:48 13.96174 -18.09443 27457 ft 340 kts 33°
2026-04-25 20:48 13.98070 -18.07986 27054 ft 346 kts 33°
2026-04-25 20:48 14.00019 -18.06498 26650 ft 349 kts 33°
2026-04-25 20:49 14.01980 -18.05007 26243 ft 348 kts 33°
2026-04-25 20:49 14.03933 -18.03526 25837 ft 347 kts 33°
2026-04-25 20:49 14.05820 -18.02031 25444 ft 345 kts 34°
2026-04-25 20:49 14.07727 -18.00531 25052 ft 343 kts 34°
2026-04-25 20:50 14.08994 -17.99549 24792 ft 342 kts 35°
2026-04-25 20:50 14.10897 -17.98087 24412 ft 340 kts 34°
2026-04-25 20:50 14.12793 -17.96636 24037 ft 338 kts 34°
2026-04-25 20:50 14.14519 -17.94984 23612 ft 343 kts 52°
2026-04-25 20:51 14.15721 -17.91969 23058 ft 349 kts 78°
2026-04-25 20:51 14.15951 -17.90286 22722 ft 350 kts 81°
2026-04-25 20:51 14.16211 -17.87785 22239 ft 351 kts 84°
2026-04-25 20:51 14.16438 -17.85299 21766 ft 352 kts 83°
2026-04-25 20:52 14.16663 -17.82785 21275 ft 352 kts 84°
2026-04-25 20:52 14.16814 -17.81107 20952 ft 352 kts 83°
2026-04-25 20:52 14.17174 -17.77783 20338 ft 351 kts 81°
2026-04-25 20:52 14.17584 -17.75286 19896 ft 355 kts 76°
2026-04-25 20:53 14.18157 -17.72721 19488 ft 388 kts 81°
2026-04-25 20:53 14.18495 -17.69802 19113 ft 427 kts 83°
2026-04-25 20:53 14.18808 -17.66748 18653 ft 427 kts 83°
2026-04-25 20:53 14.19113 -17.63711 18200 ft 424 kts 84°
2026-04-25 20:54 14.19413 -17.60697 17687 ft 420 kts 84°
2026-04-25 20:54 14.19710 -17.57723 17177 ft 417 kts 84°
2026-04-25 20:54 14.20010 -17.54755 16675 ft 413 kts 84°
2026-04-25 20:54 14.20307 -17.51862 16184 ft 407 kts 84°
2026-04-25 20:55 14.20605 -17.49010 15934 ft 390 kts 84°
2026-04-25 20:55 14.20893 -17.46297 15862 ft 370 kts 84°
2026-04-25 20:55 14.21170 -17.43721 15851 ft 356 kts 84°
2026-04-25 20:55 14.21442 -17.41194 15856 ft 351 kts 84°
2026-04-25 20:56 14.21710 -17.38714 15881 ft 355 kts 84°
2026-04-25 20:56 14.21987 -17.36165 15871 ft 359 kts 84°
2026-04-25 20:56 14.22266 -17.33595 15597 ft 364 kts 84°
2026-04-25 20:56 14.22553 -17.30982 15109 ft 366 kts 84°
2026-04-25 20:57 14.22692 -17.28386 14619 ft 359 kts 98°
2026-04-25 20:57 14.22033 -17.25984 14171 ft 350 kts 119°
2026-04-25 20:57 14.20676 -17.23936 13736 ft 340 kts 132°
2026-04-25 20:57 14.19170 -17.22079 13223 ft 335 kts 133°
2026-04-25 20:58 14.17663 -17.20291 12651 ft 331 kts 134°
2026-04-25 20:58 14.16162 -17.18507 11889 ft 325 kts 134°
2026-04-25 20:58 14.14692 -17.16764 11165 ft 318 kts 133°
2026-04-25 20:58 14.13231 -17.15072 10458 ft 312 kts 133°
2026-04-25 20:59 14.11778 -17.13432 9764 ft 306 kts 134°
2026-04-25 20:59 14.10606 -17.11696 9365 ft 293 kts 110°
2026-04-25 20:59 14.10455 -17.09639 9114 ft 294 kts 78°
2026-04-25 20:59 14.11375 -17.07723 8926 ft 305 kts 54°
2026-04-25 21:00 14.12859 -17.06117 8682 ft 312 kts 38°
2026-04-25 21:00 14.14075 -17.05329 8523 ft 313 kts 26°
2026-04-25 21:00 14.18947 -17.04822 7953 ft 299 kts 354°
2026-04-25 21:01 14.21005 -17.05070 7716 ft 297 kts 353°
2026-04-25 21:01 14.23059 -17.05329 7480 ft 296 kts 353°
2026-04-25 21:01 14.25109 -17.05561 7243 ft 295 kts 355°
2026-04-25 21:01 14.27160 -17.05699 7009 ft 294 kts 356°
2026-04-25 21:02 14.29174 -17.05808 6786 ft 293 kts 357°
2026-04-25 21:02 14.31207 -17.05916 6556 ft 291 kts 356°
2026-04-25 21:02 14.33225 -17.06029 6325 ft 288 kts 356°
2026-04-25 21:02 14.35211 -17.06144 6083 ft 283 kts 356°
2026-04-25 21:03 14.37161 -17.06260 5830 ft 278 kts 356°
2026-04-25 21:03 14.39085 -17.06377 5594 ft 274 kts 356°
2026-04-25 21:03 14.41007 -17.06495 5246 ft 279 kts 356°
2026-04-25 21:03 14.42916 -17.06612 4840 ft 279 kts 356°
2026-04-25 21:04 14.44842 -17.06731 4395 ft 275 kts 356°
2026-04-25 21:04 14.46734 -17.06942 3964 ft 268 kts 354°
2026-04-25 21:04 14.48569 -17.07099 3447 ft 258 kts 358°
2026-04-25 21:04 14.50239 -17.07134 3127 ft 230 kts
2026-04-25 21:05 14.51769 -17.07142 2823 ft 208 kts
2026-04-25 21:05 14.53156 -17.07152 2570 ft 191 kts
2026-04-25 21:05 14.54432 -17.07163 2354 ft 174 kts
2026-04-25 21:05 14.55595 -17.07175 2145 ft 159 kts
2026-04-25 21:06 14.56642 -17.07184 1950 ft 147 kts
2026-04-25 21:06 14.57655 -17.07193 1787 ft 144 kts
2026-04-25 21:06 14.58627 -17.07203 1615 ft 135 kts
2026-04-25 21:06 14.59243 -17.07208 1540 ft 137 kts 360°
2026-04-25 21:07 14.60456 -17.07219 1272 ft 122 kts 359°
2026-04-25 21:07 14.61272 -17.07227 1108 ft 112 kts
2026-04-25 21:07 14.62045 -17.07216 870 ft 111 kts
2026-04-25 21:07 14.62782 -17.07236 776 ft 103 kts 356°
2026-04-25 21:08 14.63541 -17.07249 688 ft 115 kts 358°
2026-04-25 21:08 14.64321 -17.07258 594 ft 111 kts 356°
2026-04-25 21:08 14.65086 -17.07262 418 ft 109 kts 358°
2026-04-25 21:08 14.65838 -17.07271 288 ft 100 kts 358°
2026-04-25 21:09 14.66738 -17.07280 300 ft 43 kts 359°
2026-04-25 21:09 14.66996 -17.07280 299 ft 20 kts
2026-04-25 21:09 14.67069 -17.07230 298 ft 12 kts 66°
2026-04-25 21:10 14.67076 -17.07185 298 ft 0 kts 89°
2026-04-25 21:10 14.67076 -17.07184 298 ft 0 kts 89°
2026-04-25 21:10 14.67076 -17.07181 298 ft 1 kts 89°
2026-04-25 21:10 14.67076 -17.07152 297 ft 7 kts 89°
2026-04-25 21:11 14.67076 -17.07130 297 ft 2 kts 94°
2026-04-25 21:11 14.67044 -17.07095 296 ft 13 kts 156°
2026-04-25 21:11 14.66936 -17.07089 294 ft 17 kts 178°
2026-04-25 21:11 14.66818 -17.07088 294 ft 17 kts 179°
2026-04-25 21:12 14.66727 -17.07088 296 ft 11 kts 180°
2026-04-25 21:12 14.66699 -17.07087 294 ft 4 kts 169°
2026-04-25 21:12 14.66664 -17.07036 297 ft 13 kts 94°
2026-04-25 21:12 14.66663 -17.06987 291 ft 4 kts 90°
2026-04-25 21:13 14.66663 -17.06950 294 ft 5 kts 89°
2026-04-25 21:13 14.66664 -17.06902 292 ft 9 kts 89°
2026-04-25 21:13 14.66664 -17.06839 291 ft 3 kts 89°
2026-04-25 21:13 14.66668 -17.06818 291 ft 3 kts 60°
2026-04-25 21:14 14.66691 -17.06815 296 ft 4 kts 357°
2026-04-25 21:14 14.66720 -17.06815 292 ft 4 kts 359°
2026-04-25 21:14 14.66746 -17.06816 291 ft 0 kts 359°
2026-04-25 21:14 14.66751 -17.06816 291 ft 0 kts 359°